Regional Weather Roundup
Issued by NWS

Home | Current Version | Previous Version | Text Only | Print | Product List | Glossary On
Versions: 1 2 3 4 5 6 7 8 9 10 11 12 13 14 15 16 17 18 19 20 21 22 23 24 25 26 27 28 29 30 31 32 33 34 35 36 37 38 39 40 41 42 43 44 45 46 47 48 49 50
000
ASUS43 KOAX 040710
RWRNE

WEATHER ROUNDUP FOR NEBRASKA
NATIONAL WEATHER SERVICE OMAHA NE
200 AM CDT MON MAY 04 2015

NOTES: SATELLITE DATA IS BEING USED TO AUGMENT CLOUD COVER ABOVE
       12000 FEET.
       "FAIR" INDICATES FEW OR NO CLOUDS BELOW 12,000 FEET WITH NO
       SIGNIFICANT WEATHER AND/OR OBSTRUCTIONS TO VISIBILITY.

  * THESE STATIONS DO NOT REPORT WEATHER SUCH AS RAIN...SNOW OR FOG.

NEZ001>004-019>022-054>056-040800-
NEBRASKA PANHANDLE

CITY           SKY/WX    TMP DP  RH WIND       PRES   REMARKS
SCOTTSBLUFF    MOCLDY    54  39  57 E10       30.06F
ALLIANCE       CLOUDY    49  37  63 E7        30.07R
CHADRON        CLOUDY    47  38  71 NE7       30.07R
KIMBALL        PTCLDY    46  39  77 E6        30.08R
SIDNEY         CLOUDY    51  39  63 E8        30.09R
$$

NEZ057>060-069>072-079>082-040800-
SOUTHWEST NEBRASKA

CITY           SKY/WX    TMP DP  RH WIND       PRES   REMARKS
NORTH PLATTE   MOCLDY    55  38  52 NE12      30.03R
IMPERIAL       MOCLDY    55  38  52 E7        30.07R
LEXINGTON      CLOUDY    60  38  44 NE16      29.98S
MCCOOK         CLOUDY    61  40  45 S6        30.04R
OGALLALA       MOCLDY    57  36  45 E15G24    30.07R
$$

NEZ005>010-023>029-035>040-094-040800-
NORTH CENTRAL NEBRASKA

CITY           SKY/WX    TMP DP  RH WIND       PRES   REMARKS
VALENTINE      MOCLDY    51  30  44 NE10      30.08S
AINSWORTH      CLOUDY    55  28  35 NE9       30.09R
BROKEN BOW     MOCLDY    60  38  43 NE17G26   30.01R
O`NEILL        MOCLDY    55  38  51 N9        30.06R
ORD            CLOUDY    59  39  47 N7        30.01R
THEDFORD       CLOUDY    56  35  45 NE10      30.08R
$$

NEZ041-046>049-061>064-073>077-083>087-040800-
SOUTH CENTRAL NEBRASKA

CITY           SKY/WX    TMP DP  RH WIND       PRES   REMARKS
GRAND ISLAND   CLOUDY    61  42  49 NE18G29   29.94S
AURORA         CLOUDY    61  43  51 NE24      29.93R
HASTINGS       CLOUDY    62  42  47 NE17G26   29.92S
HEBRON         CLOUDY    66  56  71 CALM      29.83R
HOLDREGE       CLOUDY    60  39  45 NE18      29.95R
KEARNEY *      CLOUDY    61  37  41 N20       29.95R
YORK           MOCLDY    63  46  55 NE20G30   29.92S
$$

NEZ011>018-030>034-042>045-040800-
NORTHEAST NEBRASKA

CITY           SKY/WX    TMP DP  RH WIND       PRES   REMARKS
NORFOLK        CLOUDY    63  40  42 NE13      30.00R
ALBION         CLOUDY    62  38  41 N13       30.00R
BLAIR          CLOUDY    63  52  67 N14G22    29.92F
COLUMBUS *     CLOUDY    61  45  55 NE15G23   29.97S
FREMONT        CLOUDY    62  47  57 CALM      29.96R
TEKAMAH        CLOUDY    60  47  61 N7        29.95R
WAYNE          CLOUDY    59  43  56 N12       29.99R
$$

NEZ050>053-065>068-078-088>093-040800-
SOUTHEAST NEBRASKA

CITY           SKY/WX    TMP DP  RH WIND       PRES   REMARKS
LINCOLN        CLOUDY    64  55  72 E8        29.93R
OMAHA EPPLEY   CLOUDY    64  55  72 N9        29.92S
BEATRICE       MOCLDY    68  60  76 NE12G21   29.89R
FALLS CITY     LGT RAIN  64  56  75 N14G39    29.95R
NEBRASKA CITY  TSTM      58  52  80 SE17      29.93R
PLATTSMOUTH    CLOUDY    58  55  90 SE10      29.93S THUNDER
$$

NEZ044-045-051>053-067-040800-
OMAHA AREA

CITY           SKY/WX    TMP DP  RH WIND       PRES   REMARKS
OMAHA EPPLEY   CLOUDY    64  55  72 N9        29.92S
BLAIR          CLOUDY    63  52  67 N14G22    29.92F
FREMONT        CLOUDY    62  47  57 CALM      29.96R
MILLARD        CLOUDY    65  55  69 N3        29.92S
OFFUTT AFB     CLOUDY    64  57  77 N8        29.91R
PLATTSMOUTH    CLOUDY    58  55  90 SE10      29.93S THUNDER
WAHOO          CLOUDY    62  51  67 N6        29.94F
$$


USA.gov is the U.S. government's official web portal to all federal, state and local government web resources and services.